Theta_e
315 315 316 316 316 315 314 312 311 313 313 314 316 319 322 323 322 315 308 313 318 327 329 321 320 314 311 305 306 303 294 290 292 293 294 299 297 303 302 299 301 301 304 313 324
314 314 314 315 315 315 315 314 311 311 312 313 314 316 320 322 314 309 315 323 326 325 319 315 310 309 304 303 303 300 293 294 299 298 297 299 299 300 301 300 299 299 315 321 327
313 313 313 313 314 314 312 313 313 311 310 311 312 315 317 318 305 303 321 324 327 326 322 317 312 307 301 301 300 299 295 299 302 303 303 300 300 301 298 297 299 298 302 311 317
312 312 312 313 312 312 312 312 312 312 311 310 311 313 315 315 292 308 322 325 326 322 319 314 309 301 299 297 301 295 300 301 303 305 303 299 301 298 300 301 304 304 305 305 308
311 311 311 311 311 311 311 311 311 311 311 311 311 312 310 305 301 315 323 328 320 320 315 311 305 301 297 299 299 297 298 302 303 303 302 302 299 299 299 303 305 305 306 305 305
310 310 310 310 310 309 310 310 310 310 310 310 310 311 306 297 312 312 317 321 318 318 312 308 305 304 300 298 298 300 300 300 301 300 301 299 298 299 300 302 302 303 303 304 304
311 310 310 309 309 309 309 309 310 310 310 309 309 307 302 302 312 310 319 319 321 317 309 309 308 304 302 298 301 300 295 297 298 300 299 300 296 295 301 303 302 301 301 303 304
310 309 308 309 308 309 309 309 309 309 309 309 308 306 298 313 315 311 312 317 320 318 315 314 312 305 301 301 298 296 294 289 296 299 300 299 289 297 301 300 300 300 300 301 304
310 309 308 308 308 308 309 309 309 309 309 309 303 301 297 313 307 310 312 312 316 316 316 316 312 304 299 293 291 292 284 287 292 297 297 295 290 297 299 298 297 298 298 300 300
309 308 307 307 307 308 308 309 308 306 305 306 304 299 303 300 307 310 314 315 312 312 309 307 305 297 292 293 283 285 285 286 287 291 293 291 289 294 296 297 296 297 297 297 299
307 307 308 307 308 308 304 297 291 289 296 291 295 298 301 307 310 307 312 312 310 306 296 302 295 292 293 291 290 289 287 286 289 293 290 289 287 291 294 292 292 293 294 296 298
307 307 308 308 307 307 299 291 296 295 286 295 296 302 305 307 299 304 312 304 303 297 299 296 292 296 296 294 292 291 288 285 289 291 288 287 287 291 294 293 295 296 296 297 296
308 307 307 308 307 302 296 295 301 302 288 294 299 301 302 305 299 300 308 304 299 296 296 293 295 300 297 294 293 290 289 285 286 288 286 285 284 286 289 291 292 293 294 294 295
310 308 307 307 300 299 294 301 303 299 275 284 293 300 303 303 296 305 309 303 298 292 292 293 296 297 294 293 291 286 289 288 286 283 279 285 277 283 286 286 288 288 288 290 291
308 308 308 306 298 295 298 303 300 294 263 288 292 307 303 297 298 300 307 303 294 294 293 289 291 294 291 292 292 288 290 287 285 281 277 279 277 281 282 283 285 287 288 288 289
309 309 307 303 301 302 300 299 295 273 270 286 295 295 294 295 296 300 300 303 302 294 293 291 295 293 291 292 293 290 286 283 281 279 272 276 276 278 280 281 285 287 288 288 289
308 307 304 303 296 302 299 291 274 272 285 286 290 293 292 293 294 296 294 291 290 286 285 289 288 291 292 288 290 287 282 272 270 269 272 278 277 279 284 286 286 287 287 289 291
306 305 302 300 300 299 294 282 276 283 283 293 293 292 289 292 293 293 291 287 290 288 283 281 281 289 291 288 286 284 282 274 269 268 272 279 276 281 286 286 287 288 287 290 292
306 296 296 299 300 297 287 275 277 283 287 291 291 288 288 291 292 291 289 287 288 286 281 278 280 289 290 290 288 283 277 282 275 272 269 274 278 283 285 285 287 288 290 291 293
294 292 294 302 303 293 285 285 286 290 293 289 284 286 284 287 287 289 287 289 288 289 288 284 279 287 289 291 290 286 287 277 273 266 269 273 274 277 281 284 286 288 289 291 294
292 288 296 301 298 291 284 285 292 297 295 289 285 285 285 285 287 285 286 287 289 288 290 286 283 285 287 284 283 284 281 280 278 275 270 270 275 282 282 283 284 287 290 291 293
289 283 296 299 288 290 287 290 294 293 294 292 289 288 285 286 283 283 284 286 291 291 286 288 283 275 283 286 288 286 283 280 272 271 274 272 276 286 286 286 288 290 293 294 296
286 286 296 295 286 288 289 291 293 292 292 291 288 291 289 286 283 285 286 291 292 290 287 289 280 272 279 283 286 283 283 282 280 277 271 271 277 287 286 288 291 294 297 297 295
287 282 289 294 294 291 289 287 288 294 292 291 289 290 288 286 288 285 285 291 292 292 297 293 283 278 274 276 282 279 282 283 281 272 276 277 279 286 288 291 294 296 297 296 294
288 288 292 285 286 290 289 289 287 288 292 292 288 288 287 284 285 285 287 288 292 296 292 289 278 279 282 284 283 283 283 283 279 280 275 279 281 286 290 292 294 297 295 293 290
288 288 293 287 286 285 287 286 288 289 290 288 288 292 289 286 286 285 287 286 287 291 288 289 281 281 277 283 283 281 283 284 283 283 284 284 284 291 294 295 296 296 291 290 288
289 295 293 287 285 283 284 287 290 291 292 293 291 290 289 291 292 291 291 291 290 288 287 288 284 278 275 280 281 278 281 284 284 285 286 281 287 292 292 295 297 292 290 289 289
Wind_Speed
21 20 20 20 20 18 15 14 13 16 15 17 18 18 18 13 9 5 13 8 11 17 7 5 6 4 3 1 3 3 4 5 6 6 4 1 1 5 1 3 5 2 2 4 7
21 21 21 22 18 18 16 16 10 12 17 16 17 16 13 14 5 12 9 16 19 13 4 11 8 8 3 3 3 4 5 9 6 5 4 2 1 3 4 6 4 3 5 7 7
21 22 21 20 20 16 6 12 16 13 12 15 17 16 18 17 2 9 20 25 20 15 6 4 7 7 5 3 4 4 5 5 5 5 3 3 2 1 1 4 4 2 5 6 1
22 20 19 19 18 15 14 9 14 15 13 14 17 17 17 4 8 3 6 24 22 13 10 6 4 8 6 6 4 3 5 5 4 4 3 3 0 3 4 7 4 2 0 2 3
21 21 17 17 17 16 14 13 14 13 14 14 14 14 8 4 9 6 13 8 20 13 12 9 5 5 7 7 5 4 2 4 5 5 3 2 5 6 7 8 7 5 5 4 3
19 18 17 15 14 14 13 13 12 14 14 13 12 11 7 8 4 11 5 6 16 14 8 9 8 5 5 5 5 6 6 5 4 4 3 4 6 6 5 6 8 5 7 8 6
20 16 16 15 14 14 14 14 14 14 13 12 11 6 6 8 1 8 6 10 12 11 11 6 6 4 5 4 5 4 2 1 5 4 5 4 7 7 9 10 11 9 8 9 10
17 15 15 15 12 13 14 14 14 13 11 11 8 3 6 4 3 13 5 4 7 6 8 8 6 4 2 3 5 7 4 1 3 6 5 8 5 3 9 7 11 11 9 8 10
15 16 16 13 14 14 14 14 14 13 10 9 3 3 5 3 8 8 3 4 9 6 7 8 5 4 2 7 4 2 4 4 5 4 2 7 2 3 2 2 8 9 10 9 8
17 17 16 14 13 11 13 16 11 5 3 1 4 4 3 4 3 3 2 8 6 11 8 6 5 4 2 6 8 5 3 2 4 1 2 4 8 10 8 5 8 9 10 10 9
20 17 16 13 11 10 8 3 5 3 2 5 5 3 1 3 0 2 4 4 6 7 7 8 4 13 14 5 5 5 4 3 3 3 3 6 4 14 10 6 9 10 12 13 15
20 19 17 14 9 7 2 2 3 4 5 10 12 4 6 7 6 4 5 4 3 4 10 4 6 6 10 8 7 7 5 2 4 1 1 6 11 16 15 8 12 14 13 12 9
18 19 15 12 5 4 2 3 3 3 2 5 3 3 3 4 5 4 8 2 8 6 2 6 2 8 11 6 6 2 4 4 4 4 2 8 7 6 5 4 4 7 8 7 9
20 13 11 11 3 1 3 2 4 2 6 3 2 3 3 4 6 2 4 2 4 10 8 5 3 9 9 1 3 3 3 2 2 3 3 4 7 8 6 9 6 7 7 7 8
17 12 10 7 6 1 1 3 2 1 8 3 3 6 6 2 10 2 8 3 6 10 4 3 1 4 7 6 6 3 5 4 3 3 2 3 2 12 4 6 3 7 9 8 7
20 16 10 6 4 1 4 2 2 7 3 1 1 4 6 2 4 3 4 8 6 11 9 4 4 1 4 4 2 8 6 6 4 2 3 2 4 9 1 2 6 7 9 9 9
21 18 8 2 3 4 3 3 6 6 1 3 5 5 6 6 5 4 1 4 4 5 4 5 4 3 4 7 5 6 5 3 5 4 5 1 1 10 6 6 4 7 8 8 8
15 15 9 5 4 3 2 5 7 2 2 5 6 11 6 5 5 2 3 4 5 5 4 4 3 1 2 3 5 2 4 5 4 1 4 1 7 6 4 3 3 2 2 7 11
8 4 3 4 4 3 3 6 2 1 4 9 12 7 4 5 4 3 3 3 2 1 5 5 3 2 4 2 2 3 2 2 7 3 3 3 8 9 4 4 5 7 8 10 11
2 2 3 4 2 1 2 5 1 2 4 6 5 1 3 1 3 3 3 3 4 1 2 3 5 3 2 3 7 3 6 3 4 1 3 4 5 5 4 6 7 9 10 10 12
3 3 3 5 3 3 4 3 3 2 4 4 3 4 4 5 2 3 6 0 2 3 5 4 4 1 3 2 6 2 1 5 5 3 4 2 6 6 5 1 3 8 8 9 11
2 4 2 2 4 1 3 4 6 4 3 4 4 4 4 3 3 2 7 2 5 6 5 2 5 3 2 0 1 2 4 5 5 4 2 2 8 3 5 4 5 10 9 6 6
2 3 3 2 4 4 3 2 2 4 3 1 3 3 2 4 4 2 4 1 7 4 6 5 2 3 4 3 3 2 3 4 4 3 6 5 7 1 4 6 10 10 9 8 9
3 4 5 4 1 2 5 4 4 3 3 3 3 3 4 3 4 4 2 3 6 6 6 6 3 5 6 5 4 3 5 5 6 3 4 7 8 12 12 12 14 11 5 8 10
4 2 1 3 4 4 3 5 4 4 4 4 4 2 5 4 2 3 2 2 3 3 4 4 4 2 4 5 4 4 4 8 8 5 7 3 7 13 15 15 14 4 6 8 9
2 3 3 2 2 4 3 4 5 4 4 3 6 4 3 4 5 7 6 3 4 2 4 1 3 2 4 2 5 5 9 9 10 7 13 15 20 18 16 12 5 4 5 7 7
2 2 1 3 4 2 1 3 5 2 2 4 3 3 4 3 2 4 2 4 5 8 4 4 5 3 4 3 6 6 9 13 6 6 10 8 12 9 8 10 4 4 5 7 8
Wind_Direction
321 321 317 309 295 293 284 283 296 312 312 315 315 329 337 241 233 233 239 228 208 243 292 160 179 164 89 201 134 147 109 183 197 161 217 310 181 330 357 313 336 244 207 296 124
318 320 320 310 302 283 293 291 286 290 308 312 311 323 324 317 219 237 219 224 226 227 164 165 166 137 150 197 190 158 164 192 188 184 186 112 105 305 14 0 315 327 46 37 131
319 315 314 316 316 302 323 320 300 292 291 302 317 316 319 330 251 246 221 219 215 215 169 138 137 137 164 158 198 175 191 182 219 189 177 129 306 248 66 306 222 352 343 11 61
325 322 323 317 316 314 305 282 282 284 298 304 313 317 324 234 220 190 205 206 204 199 169 140 131 149 154 185 182 158 192 176 227 225 157 170 212 319 209 233 181 205 154 348 1
320 329 327 323 321 323 313 308 295 292 297 303 306 310 321 216 253 311 325 222 190 182 182 165 148 142 161 163 124 175 191 199 263 288 221 170 224 224 247 258 272 265 282 267 262
321 332 333 329 327 323 315 308 299 295 295 300 300 323 263 222 243 339 304 158 175 173 165 149 167 182 141 179 158 182 199 245 267 244 248 211 234 159 268 253 262 223 246 271 255
326 326 332 332 327 321 322 317 308 296 292 297 294 307 259 248 258 341 318 181 170 165 155 161 166 146 133 129 186 145 108 241 235 205 230 157 265 222 229 254 259 251 234 246 251
324 322 327 325 327 325 320 312 309 302 299 290 279 269 248 223 120 285 294 92 149 144 144 143 124 106 167 122 43 118 86 185 300 165 235 137 240 191 232 230 263 269 254 240 252
321 315 317 315 317 320 315 304 301 293 284 278 295 206 242 52 180 235 229 160 165 157 155 148 139 158 94 113 110 97 176 188 303 201 195 188 310 274 13 254 262 279 285 270 259
321 319 317 315 314 318 317 306 300 291 282 179 259 202 248 226 157 139 156 146 141 156 120 139 162 119 99 179 186 157 150 248 217 227 114 270 272 278 276 265 243 267 272 273 270
326 316 315 312 313 330 341 6 19 26 289 199 286 213 105 321 260 113 179 167 137 85 126 179 158 192 187 157 140 126 130 179 259 297 313 266 270 280 277 259 265 257 263 264 261
327 318 314 300 324 339 70 61 128 217 303 244 270 276 277 218 143 119 156 151 134 106 121 129 194 169 135 127 120 130 139 228 280 299 287 309 290 267 269 234 234 246 251 260 281
289 302 314 312 329 72 307 242 6 157 252 60 357 328 270 180 109 149 177 58 119 92 172 146 104 123 142 135 151 118 168 183 223 333 54 325 289 314 304 272 326 298 271 280 269
314 262 276 300 104 118 269 7 95 116 86 334 22 182 303 118 52 104 131 154 160 109 13 65 350 148 123 120 111 144 179 137 83 45 261 13 289 306 301 322 317 339 331 291 314
356 352 252 213 115 162 332 90 64 58 81 153 252 313 147 27 137 17 157 194 101 123 168 70 217 129 133 176 179 146 99 97 85 92 18 355 82 270 4 344 324 339 358 357 345
8 21 75 114 117 358 126 42 34 41 76 226 343 172 92 57 52 61 8 55 33 56 83 130 137 161 129 61 81 144 79 55 54 70 22 289 131 283 355 54 318 323 351 2 5
21 23 26 45 115 149 108 47 35 68 300 140 147 120 101 115 79 58 23 63 104 109 55 31 5 13 90 80 36 72 75 351 357 18 219 192 152 252 290 280 255 305 346 356 354
17 21 28 32 41 53 12 36 49 303 260 150 114 74 81 57 82 83 84 82 37 78 121 140 156 98 6 110 162 100 145 152 212 195 275 66 238 254 234 253 283 71 343 344 350
356 352 20 310 334 15 59 50 285 321 270 120 76 67 51 39 99 86 59 107 139 99 117 117 52 42 41 101 99 188 84 152 106 45 43 248 289 309 13 109 46 34 6 336 327
78 44 275 272 283 46 62 92 44 275 93 48 87 79 112 51 72 86 176 182 133 103 148 169 89 13 116 106 37 114 145 81 14 110 273 276 278 245 302 345 356 358 328 323 328
49 29 254 326 20 42 50 24 67 69 55 80 148 107 126 139 104 123 185 245 146 117 65 112 94 65 94 187 164 121 105 58 99 120 162 308 273 209 239 359 339 296 311 309 310
54 29 307 5 54 50 12 337 334 1 357 67 96 97 104 114 99 121 187 227 162 149 125 108 117 132 176 5 214 123 164 141 123 246 85 139 273 267 266 235 289 298 306 301 312
53 286 305 71 39 5 348 334 306 342 357 52 98 79 104 126 117 158 191 149 152 138 155 174 29 57 0 13 35 209 186 125 104 81 201 133 261 183 276 275 297 318 332 339 309
64 18 332 29 105 333 7 340 351 332 326 67 91 87 109 99 27 159 144 349 182 160 129 92 108 147 182 201 141 199 186 182 141 134 193 232 290 294 299 307 319 327 325 324 341
21 66 113 347 341 337 356 343 339 14 343 24 60 135 135 105 80 116 116 80 72 122 92 116 120 106 254 231 198 215 182 184 200 189 179 213 229 276 290 299 305 308 333 343 339
31 1 345 273 278 312 346 350 12 343 7 353 100 39 85 144 181 189 141 154 167 92 128 113 126 116 296 339 210 235 222 205 210 228 257 272 287 280 283 288 277 283 341 332 332
329 293 298 295 321 116 292 308 337 332 69 46 98 89 53 327 246 204 138 123 158 144 135 130 132 105 275 327 301 282 217 198 181 196 207 225 242 300 301 298 314 330 350 346 334